This is the latest recevied weather packets stored in our database for station/object VE3MNX. If no packets are shown the sender has not sent any weather packets the latest 10 day(s).
| Time | Temp. | Humidity | Pressure | Rain* | Wind** | Luminosity | Snow |
|---|---|---|---|---|---|---|---|
| 1778198967 | 10.56° C | 57% | 1009.8 hPa | 0 mm | - | - | - |
| 1778197997 | 11.67° C | 55% | 1009.8 hPa | 0 mm | - | - | - |
| 1778197096 | 11.67° C | 53% | 1009.5 hPa | 0 mm | - | - | - |
| 1778196199 | 11.67° C | 51% | 1009.8 hPa | 0 mm | - | - | - |
| 1778195297 | 12.22° C | 51% | 1009.8 hPa | 0 mm | - | - | - |
| 1778194399 | 12.22° C | 46% | 1009.8 hPa | 0 mm | - | - | - |
| 1778193497 | 12.78° C | 45% | 1009.8 hPa | 0 mm | - | - | - |
| 1778192598 | 12.78° C | 45% | 1009.5 hPa | 0 mm | - | - | - |
| 1778191697 | 12.78° C | 45% | 1009.8 hPa | 0 mm | - | - | - |
| 1778190800 | 12.22° C | 49% | 1009.5 hPa | 0 mm | - | - | - |
| 1778189897 | 12.78° C | 45% | 1009.5 hPa | 0 mm | - | - | - |
| 1778188997 | 12.78° C | 45% | 1009.1 hPa | 0 mm | - | - | - |
| 1778188097 | 13.33° C | 49% | 1009.5 hPa | 0 mm | - | - | - |
| 1778187199 | 11.67° C | 55% | 1009.5 hPa | 0 mm | - | - | - |
| 1778186296 | 12.22° C | 55% | 1009.5 hPa | 0 mm | - | - | - |
| 1778185397 | 11.67° C | 54% | 1009.5 hPa | 0 mm | - | - | - |
| 1778184497 | 11.67° C | 68% | 1009.5 hPa | 0 mm | - | - | - |
| 1778183598 | 11.11° C | 72% | 1009.7 hPa | 0 mm | - | - | - |
| 1778182696 | 10.56° C | 76% | 1010 hPa | 0 mm | - | - | - |
| 1778181797 | 10.56° C | 72% | 1009.9 hPa | 0 mm | - | - | - |
| 1778180897 | 10.56° C | 77% | 1010.2 hPa | 0 mm | - | - | - |
| 1778179997 | 10° C | 77% | 1010.2 hPa | 0 mm | - | - | - |
| 1778179097 | 10.56° C | 78% | 1010.5 hPa | 0 mm | - | - | - |
| 1778178200 | 10° C | 74% | 1010.5 hPa | 0 mm | - | - | - |
| 1778177297 | 10.56° C | 71% | 1010.5 hPa | 0 mm | - | - | - |
* Rain latest hour (hover to see other rain measurements)
** Current wind speed in m/s (hover to see current wind gust speed)